Location: Bourg-d�Oueil
(42.8588°N, 0.4991°E)
Time: 19:39:20
(UTC+00:00)

Cosmos 405 - Pass Details

Date: 16 June 2021
Orbit: 446 x 460 km, 81.3° (Epoch: 23 July)

Event Time Altitude Azimuth Distance (km) Brightness Sun altitude
Rises 22:28:55 0° 343° (NNW) 2,460 8.2 -20.6°
Reaches altitude 10° 22:31:03 10° 337° (NNW) 1,582 6.9 -20.7°
Maximum altitude 22:34:20 44° 265° (W) 634 3.7 -21.0°
Enters shadow 22:34:31 43° 254° (WSW) 639 3.6 -21.0°
